| time (UTC) | temp F | wind direction | speed MPH | gust MPH | rain 1hr in | rain 24hr in | rain mn in | humidity % | barometer mb |
| 20260906204607 | 78 | 23 | 1.0 | 1.0 | 0.00 | 0.00 | 0.00 | 50 | 1020.9 |
| 20260906204102 | 79 | 92 | 3.0 | 4.0 | 0.00 | 0.00 | 0.00 | 49 | 1021.0 |
| 20260906203602 | 79 | 76 | 4.0 | 8.0 | 0.00 | 0.00 | 0.00 | 51 | 1021.0 |
| 20260906203057 | 79 | 25 | 1.0 | 2.0 | 0.00 | 0.00 | 0.00 | 51 | 1020.8 |
| 20260906202554 | 78 | 56 | 3.0 | 4.0 | 0.00 | 0.00 | 0.00 | 51 | 1021.1 |
| 20260906202053 | 79 | 56 | 4.0 | 7.0 | 0.00 | 0.00 | 0.00 | 50 | 1020.9 |
| 20260906201548 | 79 | 82 | 1.0 | 1.0 | 0.00 | 0.00 | 0.00 | 51 | 1020.9 |
| 20260906201047 | 78 | 58 | 3.0 | 4.0 | 0.00 | 0.00 | 0.00 | 52 | 1021.2 |
| 20260906200543 | 79 | 38 | 3.0 | 4.0 | 0.00 | 0.00 | 0.00 | 52 | 1021.0 |
| 20260906200039 | 79 | 14 | 1.0 | 7.0 | 0.00 | 0.00 | 0.00 | 53 | 1020.9 |
| 20260906195534 | 80 | 44 | 1.0 | 3.0 | 0.00 | 0.00 | 0.00 | 51 | 1020.9 |
| 20260906195031 | 79 | 355 | 2.0 | 3.0 | 0.00 | 0.00 | 0.00 | 54 | 1020.8 |
| 20260906194526 | 79 | 108 | 3.0 | 4.0 | 0.00 | 0.00 | 0.00 | 52 | 1020.8 |
| 20260906194022 | 79 | 329 | 1.0 | 1.0 | 0.00 | 0.00 | 0.00 | 54 | 1021.0 |
| 20260906193521 | 79 | 65 | 4.0 | 6.0 | 0.00 | 0.00 | 0.00 | 53 | 1021.0 |
| 20260906193017 | 78 | 104 | 5.0 | 7.0 | 0.00 | 0.00 | 0.00 | 53 | 1021.0 |
| 20260906192512 | 80 | 90 | 9.0 | 10.0 | 0.00 | 0.00 | 0.00 | 53 | 1021.0 |
| 20260906192012 | 78 | 77 | 6.0 | 8.0 | 0.00 | 0.00 | 0.00 | 55 | 1021.1 |
| 20260906191507 | 79 | 60 | 7.0 | 9.0 | 0.00 | 0.00 | 0.00 | 55 | 1021.1 |
| 20260906191006 | 79 | 54 | 1.0 | 1.0 | 0.00 | 0.00 | 0.00 | 56 | 1021.2 |
| 20260906190505 | 79 | 54 | 4.0 | 4.0 | 0.00 | 0.00 | 0.00 | 56 | 1021.1 |
| 20260906190000 | 79 | 297 | 5.0 | 10.0 | 0.00 | 0.00 | 0.00 | 57 | 1021.3 |
| 20260906185459 | 80 | 107 | 5.0 | 7.0 | 0.00 | 0.00 | 0.00 | 55 | 1021.3 |
| 20260906184958 | 78 | 15 | 4.0 | 4.0 | 0.00 | 0.00 | 0.00 | 57 | 1021.1 |
| 20260906184453 | 80 | 42 | 2.0 | 2.0 | 0.00 | 0.00 | 0.00 | 55 | 1021.4 |
| 20260906183948 | 79 | 75 | 7.0 | 10.0 | 0.00 | 0.00 | 0.00 | 56 | 1021.2 |
| 20260906183445 | 78 | 354 | 2.0 | 3.0 | 0.00 | 0.00 | 0.00 | 56 | 1021.2 |
| 20260906182940 | 79 | 346 | 5.0 | 8.0 | 0.00 | 0.00 | 0.00 | 57 | 1021.2 |
| 20260906182435 | 79 | 55 | 2.0 | 2.0 | 0.00 | 0.00 | 0.00 | 58 | 1020.9 |
| 20260906181931 | 78 | 110 | 7.0 | 11.0 | 0.00 | 0.00 | 0.00 | 58 | 1021.0 |
| 20260906181427 | 78 | 38 | 2.0 | 3.0 | 0.00 | 0.00 | 0.00 | 60 | 1021.2 |
| 20260906180922 | 78 | 347 | 1.0 | 2.0 | 0.00 | 0.00 | 0.00 | 61 | 1021.3 |
| 20260906180417 | 78 | 17 | 1.0 | 1.0 | 0.00 | 0.00 | 0.00 | 61 | 1021.2 |
| 20260906175915 | 79 | 117 | 2.0 | 3.0 | 0.00 | 0.00 | 0.00 | 60 | 1021.6 |
| 20260906175410 | 79 | 75 | 2.0 | 2.0 | 0.00 | 0.00 | 0.00 | 61 | 1021.5 |
| 20260906174909 | 78 | 63 | 1.0 | 2.0 | 0.00 | 0.00 | 0.00 | 59 | 1021.3 |
| 20260906174408 | 78 | 55 | 1.0 | 2.0 | 0.00 | 0.00 | 0.00 | 59 | 1021.4 |
| 20260906173903 | 79 | 4 | 1.0 | 2.0 | 0.00 | 0.00 | 0.00 | 59 | 1021.4 |
| 20260906173359 | 79 | 45 | 1.0 | 1.0 | 0.00 | 0.00 | 0.00 | 59 | 1021.5 |
| 20260906172858 | 79 | 84 | 3.0 | 4.0 | 0.00 | 0.00 | 0.00 | 57 | 1021.5 |
| 20260906172355 | 79 | 22 | 1.0 | 1.0 | 0.00 | 0.00 | 0.00 | 57 | 1021.7 |
| 20260906171855 | 80 | 348 | 2.0 | 3.0 | 0.00 | 0.00 | 0.00 | 58 | 1021.9 |
| 20260906171349 | 78 | 49 | 2.0 | 3.0 | 0.00 | 0.00 | 0.00 | 58 | 1021.7 |
| 20260906170845 | 79 | 107 | 3.0 | 6.0 | 0.00 | 0.00 | 0.00 | 57 | 1021.7 |
| 20260906170341 | 78 | 2 | 2.0 | 3.0 | 0.00 | 0.00 | 0.00 | 60 | 1021.8 |
| 20260906165837 | 79 | 75 | 4.0 | 7.0 | 0.00 | 0.00 | 0.00 | 58 | 1021.7 |
| 20260906165336 | 78 | 106 | 2.0 | 3.0 | 0.00 | 0.00 | 0.00 | 61 | 1021.7 |
| 20260906164832 | 78 | 79 | 5.0 | 7.0 | 0.00 | 0.00 | 0.00 | 59 | 1021.9 |
| 20260906164331 | 78 | 116 | 3.0 | 4.0 | 0.00 | 0.00 | 0.00 | 61 | 1021.9 |
| 20260906163827 | 78 | 84 | 3.0 | 6.0 | 0.00 | 0.00 | 0.00 | 63 | 1021.8 |
| 20260906163323 | 78 | 149 | 2.0 | 2.0 | 0.00 | 0.00 | 0.00 | 62 | 1021.7 |
| 20260906162820 | 78 | 101 | 3.0 | 3.0 | 0.00 | 0.00 | 0.00 | 64 | 1021.5 |
| 20260906162319 | 78 | 143 | 2.0 | 3.0 | 0.00 | 0.00 | 0.00 | 64 | 1021.5 |
| 20260906161815 | 77 | 55 | 4.0 | 4.0 | 0.00 | 0.00 | 0.00 | 65 | 1021.7 |
| 20260906161314 | 77 | 15 | 1.0 | 2.0 | 0.00 | 0.00 | 0.00 | 67 | 1021.8 |
| 20260906160813 | 78 | 18 | 4.0 | 7.0 | 0.00 | 0.00 | 0.00 | 65 | 1021.5 |
| 20260906160307 | 78 | 353 | 4.0 | 7.0 | 0.00 | 0.00 | 0.00 | 66 | 1021.4 |
| 20260906155805 | 78 | 122 | 2.0 | 3.0 | 0.00 | 0.00 | 0.00 | 68 | 1021.5 |
| 20260906155259 | 78 | 53 | 6.0 | 8.0 | 0.00 | 0.00 | 0.00 | 67 | 1021.7 |
| 20260906154755 | 77 | 59 | 1.0 | 1.0 | 0.00 | 0.00 | 0.00 | 68 | 1021.4 |
| 20260906154250 | 77 | 60 | 3.0 | 6.0 | 0.00 | 0.00 | 0.00 | 69 | 1021.4 |
| 20260906153749 | 78 | 49 | 2.0 | 4.0 | 0.00 | 0.00 | 0.00 | 70 | 1021.4 |
| 20260906153243 | 77 | 68 | 2.0 | 2.0 | 0.00 | 0.00 | 0.00 | 70 | 1021.5 |
| 20260906152739 | 78 | 65 | 6.0 | 6.0 | 0.00 | 0.00 | 0.00 | 69 | 1021.5 |
| 20260906152239 | 77 | 66 | 1.0 | 2.0 | 0.00 | 0.00 | 0.00 | 71 | 1021.7 |
| 20260906151738 | 77 | 125 | 3.0 | 4.0 | 0.00 | 0.00 | 0.00 | 71 | 1021.4 |
| 20260906151234 | 75 | 79 | 2.0 | 2.0 | 0.00 | 0.00 | 0.00 | 76 | 1021.5 |
| 20260906150729 | 77 | 50 | 4.0 | 6.0 | 0.00 | 0.00 | 0.00 | 75 | 1021.4 |
| 20260906150225 | 76 | 94 | 0.0 | 1.0 | 0.00 | 0.00 | 0.00 | 75 | 1021.4 |
| 20260906145724 | 76 | 119 | 2.0 | 2.0 | 0.00 | 0.00 | 0.00 | 76 | 1021.4 |
| 20260906145223 | 76 | 70 | 2.0 | 4.0 | 0.00 | 0.00 | 0.00 | 75 | 1021.4 |
| 20260906144718 | 76 | 68 | 1.0 | 1.0 | 0.00 | 0.00 | 0.00 | 76 | 1021.5 |
| 20260906144213 | 77 | 62 | 2.0 | 2.0 | 0.00 | 0.00 | 0.00 | 75 | 1021.5 |
| 20260906143712 | 76 | 42 | 4.0 | 4.0 | 0.00 | 0.00 | 0.00 | 76 | 1021.5 |
| 20260906143210 | 76 | 41 | 2.0 | 2.0 | 0.00 | 0.00 | 0.00 | 77 | 1021.4 |
| 20260906142709 | 75 | 58 | 0.0 | 0.0 | 0.00 | 0.00 | 0.00 | 80 | 1021.4 |
| 20260906142204 | 74 | 133 | 1.0 | 2.0 | 0.00 | 0.00 | 0.00 | 81 | 1021.4 |
| 20260906141703 | 75 | 88 | 5.0 | 6.0 | 0.00 | 0.00 | 0.00 | 79 | 1021.5 |
| 20260906141158 | 74 | 125 | 2.0 | 3.0 | 0.00 | 0.00 | 0.00 | 83 | 1021.2 |
| 20260906140657 | 74 | 38 | 0.0 | 1.0 | 0.00 | 0.00 | 0.00 | 83 | 1021.2 |
| 20260906140152 | 74 | 69 | 0.0 | 1.0 | 0.00 | 0.00 | 0.00 | 84 | 1021.2 |
| 20260906135649 | 74 | 78 | 3.0 | 3.0 | 0.00 | 0.00 | 0.00 | 83 | 1021.2 |
| 20260906135145 | 75 | 64 | 1.0 | 1.0 | 0.00 | 0.00 | 0.00 | 82 | 1021.0 |
| 20260906134641 | 75 | 72 | 2.0 | 3.0 | 0.00 | 0.00 | 0.00 | 82 | 1021.1 |
| 20260906134136 | 74 | 47 | 0.0 | 1.0 | 0.00 | 0.00 | 0.00 | 83 | 1021.1 |
| 20260906133631 | 74 | 48 | 2.0 | 3.0 | 0.00 | 0.00 | 0.00 | 83 | 1021.1 |
| 20260906133126 | 74 | 109 | 1.0 | 2.0 | 0.00 | 0.00 | 0.00 | 82 | 1021.1 |
| 20260906132627 | 74 | 122 | 2.0 | 2.0 | 0.00 | 0.00 | 0.00 | 83 | 1021.2 |
| 20260906132123 | 73 | 82 | 2.0 | 2.0 | 0.00 | 0.00 | 0.00 | 84 | 1021.3 |
| 20260906131618 | 72 | 134 | 2.0 | 3.0 | 0.00 | 0.00 | 0.00 | 85 | 1021.2 |
| 20260906131113 | 73 | 87 | 4.0 | 6.0 | 0.00 | 0.00 | 0.00 | 85 | 1021.1 |
| 20260906130608 | 73 | 53 | 2.0 | 4.0 | 0.00 | 0.00 | 0.00 | 85 | 1021.2 |
| 20260906130104 | 73 | 31 | 2.0 | 2.0 | 0.00 | 0.00 | 0.00 | 86 | 1021.0 |
| 20260906125601 | 72 | 101 | 1.0 | 1.0 | 0.00 | 0.00 | 0.00 | 87 | 1020.7 |
| 20260906125100 | 72 | 87 | 1.0 | 2.0 | 0.00 | 0.00 | 0.00 | 87 | 1020.8 |
| 20260906124555 | 73 | 70 | 1.0 | 1.0 | 0.00 | 0.00 | 0.00 | 86 | 1020.9 |
| 20260906124051 | 72 | 63 | 0.0 | 0.0 | 0.00 | 0.00 | 0.00 | 86 | 1020.7 |
| 20260906123550 | 72 | 75 | 3.0 | 4.0 | 0.00 | 0.00 | 0.00 | 86 | 1020.8 |
| 20260906123045 | 72 | 58 | 3.0 | 6.0 | 0.00 | 0.00 | 0.00 | 86 | 1020.8 |
| 20260906122544 | 72 | 60 | 3.0 | 7.0 | 0.00 | 0.00 | 0.00 | 87 | 1020.8 |
| 20260906122041 | 72 | 61 | 0.0 | 1.0 | 0.00 | 0.00 | 0.00 | 88 | 1020.6 |
| 20260906121536 | 71 | 25 | 1.0 | 3.0 | 0.00 | 0.00 | 0.00 | 89 | 1020.7 |
| 20260906121033 | 71 | 56 | 0.0 | 0.0 | 0.00 | 0.00 | 0.00 | 90 | 1020.6 |
| 20260906120527 | 71 | 46 | 0.0 | 0.0 | 0.00 | 0.00 | 0.00 | 90 | 1020.5 |
| 20260906120025 | 70 | 63 | 0.0 | 1.0 | 0.00 | 0.00 | 0.00 | 91 | 1020.4 |
| 20260906115524 | 70 | 76 | 0.0 | 1.0 | 0.00 | 0.00 | 0.00 | 91 | 1020.3 |
| 20260906115019 | 70 | 59 | 0.0 | 0.0 | 0.00 | 0.00 | 0.00 | 92 | 1020.2 |
| 20260906114514 | 69 | 32 | 0.0 | 0.0 | 0.00 | 0.00 | 0.00 | 93 | 1020.1 |
| 20260906114010 | 69 | 44 | 0.0 | 0.0 | 0.00 | 0.00 | 0.00 | 93 | 1020.1 |
| 20260906113509 | 69 | 43 | 1.0 | 1.0 | 0.00 | 0.00 | 0.00 | 93 | 1020.1 |
| 20260906113004 | 69 | 27 | 1.0 | 1.0 | 0.00 | 0.00 | 0.00 | 93 | 1019.7 |
| 20260906112459 | 70 | 51 | 1.0 | 1.0 | 0.00 | 0.00 | 0.00 | 93 | 1019.7 |
| 20260906111955 | 70 | 42 | 0.0 | 0.0 | 0.00 | 0.00 | 0.00 | 92 | 1019.7 |
| 20260906111454 | 70 | 38 | 0.0 | 0.0 | 0.00 | 0.00 | 0.00 | 92 | 1019.8 |
| 20260906110949 | 70 | 34 | 0.0 | 0.0 | 0.00 | 0.00 | 0.00 | 92 | 1019.8 |
| 20260906110444 | 70 | 54 | 0.0 | 0.0 | 0.00 | 0.00 | 0.00 | 92 | 1019.7 |
| 20260906105943 | 70 | 52 | 0.0 | 0.0 | 0.00 | 0.00 | 0.00 | 92 | 1019.7 |
| 20260906105439 | 70 | 23 | 1.0 | 1.0 | 0.00 | 0.00 | 0.00 | 92 | 1019.8 |
| 20260906104936 | 70 | 11 | 2.0 | 2.0 | 0.00 | 0.00 | 0.00 | 92 | 1019.5 |
| 20260906104434 | 70 | 29 | 1.0 | 1.0 | 0.00 | 0.00 | 0.00 | 92 | 1019.4 |
| 20260906103933 | 70 | 32 | 0.0 | 0.0 | 0.00 | 0.00 | 0.00 | 92 | 1019.5 |
| 20260906103431 | 70 | 71 | 0.0 | 0.0 | 0.00 | 0.00 | 0.00 | 91 | 1019.2 |
| 20260906102927 | 71 | 16 | 1.0 | 1.0 | 0.00 | 0.00 | 0.00 | 91 | 1019.3 |
| 20260906102427 | 71 | 44 | 0.0 | 1.0 | 0.00 | 0.00 | 0.00 | 91 | 1019.2 |
| 20260906101921 | 71 | 27 | 0.0 | 1.0 | 0.00 | 0.00 | 0.00 | 91 | 1019.2 |
| 20260906101417 | 71 | 40 | 0.0 | 0.0 | 0.00 | 0.00 | 0.00 | 91 | 1019.2 |
| 20260906100912 | 71 | 55 | 0.0 | 1.0 | 0.00 | 0.00 | 0.00 | 90 | 1018.9 |
| 20260906100412 | 71 | 34 | 1.0 | 2.0 | 0.00 | 0.00 | 0.00 | 90 | 1019.0 |
| 20260906095906 | 71 | 59 | 1.0 | 1.0 | 0.00 | 0.00 | 0.00 | 90 | 1019.0 |
| 20260906095402 | 71 | 37 | 0.0 | 1.0 | 0.00 | 0.00 | 0.00 | 90 | 1019.1 |
| 20260906094902 | 71 | 20 | 3.0 | 3.0 | 0.00 | 0.00 | 0.00 | 90 | 1019.1 |
| 20260906094357 | 71 | 18 | 2.0 | 3.0 | 0.00 | 0.00 | 0.00 | 90 | 1018.9 |
| 20260906093853 | 71 | 17 | 0.0 | 1.0 | 0.00 | 0.00 | 0.00 | 90 | 1019.0 |
| 20260906093349 | 72 | 29 | 1.0 | 2.0 | 0.00 | 0.00 | 0.00 | 90 | 1019.2 |
| 20260906092848 | 72 | 38 | 0.0 | 1.0 | 0.00 | 0.00 | 0.00 | 90 | 1019.2 |
| 20260906092343 | 72 | 44 | 0.0 | 0.0 | 0.00 | 0.00 | 0.00 | 89 | 1019.1 |
| 20260906091839 | 72 | 31 | 1.0 | 2.0 | 0.00 | 0.00 | 0.00 | 89 | 1019.0 |
| 20260906091335 | 72 | 46 | 1.0 | 1.0 | 0.00 | 0.00 | 0.00 | 89 | 1018.9 |
| 20260906090831 | 72 | 35 | 0.0 | 1.0 | 0.00 | 0.00 | 0.00 | 89 | 1018.8 |
| 20260906090330 | 72 | 38 | 0.0 | 0.0 | 0.00 | 0.00 | 0.00 | 89 | 1018.8 |
| 20260906085830 | 72 | 30 | 2.0 | 2.0 | 0.00 | 0.00 | 0.00 | 89 | 1019.1 |
| 20260906085329 | 72 | 42 | 0.0 | 1.0 | 0.00 | 0.00 | 0.00 | 89 | 1018.9 |
| 20260906084825 | 72 | 21 | 0.0 | 1.0 | 0.00 | 0.00 | 0.00 | 89 | 1019.0 |
| 20260906084324 | 72 | 42 | 0.0 | 0.0 | 0.00 | 0.00 | 0.00 | 90 | 1018.9 |
| 20260906083819 | 72 | 31 | 1.0 | 2.0 | 0.00 | 0.00 | 0.00 | 90 | 1019.0 |
| 20260906083315 | 72 | 3 | 2.0 | 2.0 | 0.00 | 0.00 | 0.00 | 91 | 1019.0 |
| 20260906082815 | 72 | 26 | 1.0 | 1.0 | 0.00 | 0.00 | 0.00 | 91 | 1018.9 |
| 20260906082310 | 72 | 84 | 1.0 | 2.0 | 0.00 | 0.00 | 0.00 | 91 | 1018.9 |
| 20260906081805 | 72 | 15 | 0.0 | 0.0 | 0.00 | 0.00 | 0.00 | 91 | 1019.0 |
| 20260906081301 | 72 | 47 | 0.0 | 0.0 | 0.00 | 0.00 | 0.00 | 91 | 1019.0 |
| 20260906080757 | 72 | 27 | 1.0 | 1.0 | 0.00 | 0.00 | 0.00 | 91 | 1018.8 |
| 20260906080254 | 72 | 22 | 1.0 | 2.0 | 0.00 | 0.00 | 0.00 | 91 | 1018.8 |
| 20260906075753 | 71 | 7 | 1.0 | 1.0 | 0.00 | 0.00 | 0.00 | 91 | 1019.1 |
| 20260906075253 | 72 | 24 | 0.0 | 0.0 | 0.00 | 0.00 | 0.00 | 91 | 1019.0 |
| 20260906074748 | 72 | 21 | 0.0 | 0.0 | 0.00 | 0.00 | 0.00 | 91 | 1019.1 |
| 20260906074247 | 72 | 21 | 0.0 | 0.0 | 0.00 | 0.00 | 0.00 | 90 | 1019.0 |
| 20260906073747 | 72 | 18 | 1.0 | 1.0 | 0.00 | 0.00 | 0.00 | 90 | 1019.0 |
| 20260906073242 | 72 | 39 | 1.0 | 2.0 | 0.00 | 0.00 | 0.00 | 90 | 1018.9 |
| 20260906072738 | 72 | 50 | 0.0 | 0.0 | 0.00 | 0.00 | 0.00 | 90 | 1019.0 |
| 20260906072233 | 72 | 24 | 2.0 | 2.0 | 0.00 | 0.00 | 0.00 | 90 | 1019.3 |
| 20260906071729 | 72 | 50 | 0.0 | 0.0 | 0.00 | 0.00 | 0.00 | 91 | 1019.2 |
| 20260906071229 | 72 | 20 | 0.0 | 0.0 | 0.00 | 0.00 | 0.00 | 91 | 1019.2 |
| 20260906070726 | 72 | 32 | 0.0 | 0.0 | 0.00 | 0.00 | 0.00 | 91 | 1019.3 |
| 20260906070221 | 72 | 33 | 0.0 | 0.0 | 0.00 | 0.00 | 0.00 | 91 | 1019.4 |
| 20260906065721 | 72 | 43 | 0.0 | 0.0 | 0.00 | 0.00 | 0.00 | 91 | 1019.0 |
| 20260906065216 | 72 | 13 | 2.0 | 2.0 | 0.00 | 0.00 | 0.00 | 91 | 1019.1 |
| 20260906064711 | 72 | 34 | 0.0 | 0.0 | 0.00 | 0.00 | 0.00 | 91 | 1019.2 |
| 20260906064207 | 72 | 38 | 1.0 | 2.0 | 0.00 | 0.00 | 0.00 | 91 | 1019.1 |
| 20260906063702 | 72 | 37 | 2.0 | 3.0 | 0.00 | 0.00 | 0.00 | 91 | 1019.2 |
| 20260906063157 | 72 | 29 | 1.0 | 1.0 | 0.00 | 0.00 | 0.00 | 92 | 1019.2 |
| 20260906062653 | 72 | 75 | 0.0 | 0.0 | 0.00 | 0.00 | 0.00 | 91 | 1019.0 |
| 20260906062152 | 72 | 118 | 1.0 | 1.0 | 0.00 | 0.00 | 0.00 | 91 | 1019.1 |
| 20260906061648 | 72 | 3 | 1.0 | 2.0 | 0.00 | 0.00 | 0.00 | 91 | 1019.3 |
| 20260906061148 | 72 | 45 | 1.0 | 2.0 | 0.00 | 0.00 | 0.00 | 91 | 1019.0 |
| 20260906060645 | 72 | 15 | 0.0 | 0.0 | 0.00 | 0.00 | 0.00 | 91 | 1019.3 |
| 20260906060142 | 73 | 52 | 0.0 | 1.0 | 0.00 | 0.00 | 0.00 | 91 | 1019.3 |
| 20260906055637 | 73 | 83 | 0.0 | 1.0 | 0.00 | 0.00 | 0.00 | 91 | 1019.2 |
| 20260906055132 | 73 | 347 | 2.0 | 3.0 | 0.00 | 0.00 | 0.00 | 91 | 1019.4 |
| 20260906054627 | 73 | 33 | 1.0 | 2.0 | 0.00 | 0.00 | 0.00 | 91 | 1019.1 |
| 20260906054122 | 73 | 39 | 0.0 | 0.0 | 0.00 | 0.00 | 0.00 | 91 | 1019.3 |
| 20260906053619 | 73 | 14 | 2.0 | 3.0 | 0.00 | 0.00 | 0.00 | 91 | 1019.2 |
| 20260906053114 | 73 | 13 | 1.0 | 2.0 | 0.00 | 0.00 | 0.00 | 91 | 1019.0 |
| 20260906052610 | 73 | 41 | 1.0 | 1.0 | 0.00 | 0.00 | 0.00 | 91 | 1019.0 |
| 20260906052106 | 73 | 20 | 1.0 | 1.0 | 0.00 | 0.00 | 0.00 | 91 | 1019.1 |
| 20260906051602 | 73 | 58 | 2.0 | 3.0 | 0.00 | 0.00 | 0.00 | 91 | 1018.7 |
| 20260906051057 | 73 | 151 | 4.0 | 4.0 | 0.00 | 0.00 | 0.00 | 91 | 1018.9 |
| 20260906050552 | 73 | 67 | 2.0 | 4.0 | 0.00 | 0.00 | 0.00 | 91 | 1018.8 |
| 20260906050048 | 73 | 117 | 2.0 | 2.0 | 0.00 | 0.00 | 0.00 | 91 | 1018.9 |
| 20260906045545 | 73 | 15 | 4.0 | 4.0 | 0.00 | 0.00 | 0.00 | 91 | 1019.0 |
| 20260906045041 | 73 | 55 | 1.0 | 1.0 | 0.00 | 0.00 | 0.00 | 91 | 1018.7 |
| 20260906044537 | 73 | 31 | 4.0 | 6.0 | 0.00 | 0.00 | 0.00 | 91 | 1018.7 |
| 20260906044032 | 73 | 51 | 1.0 | 1.0 | 0.00 | 0.00 | 0.00 | 90 | 1018.5 |
| 20260906043527 | 73 | 80 | 1.0 | 2.0 | 0.00 | 0.00 | 0.00 | 90 | 1018.6 |
| 20260906043024 | 72 | 27 | 0.0 | 1.0 | 0.00 | 0.00 | 0.00 | 90 | 1018.5 |
| 20260906042522 | 72 | 135 | 1.0 | 2.0 | 0.00 | 0.00 | 0.00 | 90 | 1018.2 |
| 20260906042017 | 72 | 57 | 2.0 | 3.0 | 0.00 | 0.00 | 0.00 | 90 | 1018.2 |
| 20260906041514 | 72 | 45 | 2.0 | 3.0 | 0.00 | 0.00 | 0.00 | 90 | 1018.2 |
| 20260906041013 | 72 | 17 | 9.0 | 11.0 | 0.00 | 0.00 | 0.00 | 90 | 1018.2 |
| 20260906040508 | 72 | 49 | 1.0 | 2.0 | 0.00 | 0.00 | 0.00 | 90 | 1018.0 |
| 20260906040004 | 72 | 35 | 5.0 | 6.0 | 0.00 | 0.00 | 0.00 | 90 | 1017.9 |
| 20260906035459 | 72 | 347 | 2.0 | 4.0 | 0.00 | 0.00 | 0.00 | 90 | 1018.1 |
| 20260906034955 | 72 | 53 | 3.0 | 6.0 | 0.00 | 0.00 | 0.00 | 90 | 1018.1 |
| 20260906034454 | 73 | 74 | 2.0 | 2.0 | 0.00 | 0.00 | 0.00 | 90 | 1018.1 |
| 20260906033949 | 73 | 39 | 2.0 | 3.0 | 0.00 | 0.00 | 0.00 | 89 | 1018.0 |
| 20260906033444 | 73 | 50 | 2.0 | 2.0 | 0.00 | 0.00 | 0.00 | 89 | 1018.0 |
| 20260906032940 | 73 | 21 | 1.0 | 1.0 | 0.00 | 0.00 | 0.00 | 89 | 1018.2 |
| 20260906032437 | 73 | 85 | 1.0 | 2.0 | 0.00 | 0.00 | 0.00 | 89 | 1018.2 |
| 20260906031937 | 73 | 56 | 0.0 | 1.0 | 0.00 | 0.00 | 0.00 | 89 | 1018.3 |
| 20260906031432 | 73 | 55 | 1.0 | 1.0 | 0.00 | 0.00 | 0.00 | 89 | 1018.0 |
| 20260906030927 | 73 | 43 | 2.0 | 2.0 | 0.00 | 0.00 | 0.00 | 89 | 1018.2 |
| 20260906030422 | 73 | 21 | 1.0 | 1.0 | 0.00 | 0.00 | 0.00 | 89 | 1018.3 |
| 20260906025916 | 73 | 20 | 0.0 | 1.0 | 0.00 | 0.00 | 0.00 | 89 | 1018.1 |
| 20260906025410 | 73 | 350 | 4.0 | 6.0 | 0.00 | 0.00 | 0.00 | 88 | 1018.1 |
| 20260906024909 | 73 | 31 | 4.0 | 4.0 | 0.00 | 0.00 | 0.00 | 88 | 1018.0 |
| 20260906024408 | 73 | 12 | 4.0 | 4.0 | 0.00 | 0.00 | 0.00 | 88 | 1018.2 |
| 20260906023904 | 73 | 28 | 0.0 | 1.0 | 0.00 | 0.00 | 0.00 | 88 | 1018.0 |
| 20260906023401 | 73 | 65 | 3.0 | 3.0 | 0.00 | 0.00 | 0.00 | 88 | 1017.9 |
| 20260906022900 | 73 | 5 | 2.0 | 3.0 | 0.00 | 0.00 | 0.00 | 87 | 1018.0 |
| 20260906022355 | 73 | 65 | 2.0 | 3.0 | 0.00 | 0.00 | 0.00 | 87 | 1017.7 |
| 20260906021851 | 73 | 20 | 4.0 | 8.0 | 0.00 | 0.00 | 0.00 | 87 | 1017.9 |
| 20260906021350 | 73 | 10 | 1.0 | 2.0 | 0.00 | 0.00 | 0.00 | 87 | 1018.2 |
| 20260906020845 | 73 | 147 | 3.0 | 3.0 | 0.00 | 0.00 | 0.00 | 87 | 1018.0 |
| 20260906020344 | 73 | 72 | 2.0 | 2.0 | 0.00 | 0.00 | 0.00 | 87 | 1018.1 |
| 20260906015839 | 73 | 3 | 2.0 | 3.0 | 0.00 | 0.00 | 0.00 | 87 | 1018.1 |
| 20260906015339 | 73 | 29 | 3.0 | 3.0 | 0.00 | 0.00 | 0.00 | 87 | 1018.0 |
| 20260906014838 | 73 | 49 | 0.0 | 0.0 | 0.00 | 0.00 | 0.00 | 87 | 1018.3 |
| 20260906014333 | 73 | 19 | 3.0 | 8.0 | 0.00 | 0.00 | 0.00 | 87 | 1018.2 |
| 20260906013830 | 73 | 23 | 1.0 | 1.0 | 0.00 | 0.00 | 0.00 | 87 | 1018.2 |
| 20260906013325 | 73 | 352 | 2.0 | 2.0 | 0.00 | 0.00 | 0.00 | 87 | 1018.3 |
| 20260906012820 | 73 | 349 | 1.0 | 3.0 | 0.00 | 0.00 | 0.00 | 87 | 1018.1 |
| 20260906012320 | 73 | 55 | 4.0 | 4.0 | 0.00 | 0.00 | 0.00 | 88 | 1018.4 |
| 20260906011815 | 73 | 29 | 1.0 | 2.0 | 0.00 | 0.00 | 0.00 | 88 | 1018.0 |
| 20260906011315 | 73 | 39 | 1.0 | 2.0 | 0.00 | 0.00 | 0.00 | 88 | 1018.1 |
| 20260906010811 | 73 | 55 | 4.0 | 7.0 | 0.00 | 0.00 | 0.00 | 88 | 1018.0 |
| 20260906010307 | 73 | 23 | 1.0 | 1.0 | 0.00 | 0.00 | 0.00 | 88 | 1017.9 |
| 20260906005802 | 73 | 137 | 1.0 | 2.0 | 0.00 | 0.00 | 0.00 | 88 | 1017.7 |
| 20260906005301 | 73 | 22 | 1.0 | 1.0 | 0.00 | 0.00 | 0.00 | 88 | 1017.7 |
| 20260906004800 | 73 | 35 | 4.0 | 4.0 | 0.00 | 0.00 | 0.00 | 88 | 1017.7 |
| 20260906004255 | 73 | 46 | 4.0 | 6.0 | 0.00 | 0.00 | 0.00 | 88 | 1017.6 |
| 20260906003755 | 73 | 110 | 4.0 | 6.0 | 0.00 | 0.00 | 0.00 | 89 | 1017.7 |
| 20260906003251 | 73 | 106 | 4.0 | 6.0 | 0.00 | 0.00 | 0.00 | 88 | 1017.6 |
| 20260906002747 | 73 | 62 | 4.0 | 9.0 | 0.00 | 0.00 | 0.00 | 88 | 1017.6 |
| 20260906002246 | 73 | 308 | 1.0 | 1.0 | 0.00 | 0.00 | 0.00 | 89 | 1017.3 |
| 20260906001742 | 73 | 71 | 6.0 | 7.0 | 0.00 | 0.00 | 0.00 | 88 | 1017.4 |
| 20260906001237 | 73 | 28 | 3.0 | 6.0 | 0.00 | 0.00 | 0.00 | 88 | 1017.6 |
| 20260906000732 | 73 | 6 | 2.0 | 3.0 | 0.00 | 0.00 | 0.00 | 88 | 1017.4 |
| 20260906000234 | 73 | 10 | 6.0 | 9.0 | 0.00 | 0.00 | 0.00 | 88 | 1017.5 |
| 20260905235727 | 73 | 52 | 2.0 | 3.0 | 0.00 | 0.00 | 0.00 | 88 | 1017.6 |
| 20260905235226 | 73 | 24 | 1.0 | 1.0 | 0.00 | 0.00 | 0.00 | 88 | 1017.6 |
| 20260905234722 | 73 | 80 | 1.0 | 1.0 | 0.00 | 0.00 | 0.00 | 89 | 1017.6 |
| 20260905234217 | 73 | 7 | 3.0 | 7.0 | 0.00 | 0.00 | 0.00 | 89 | 1017.7 |
| 20260905233713 | 73 | 27 | 2.0 | 3.0 | 0.00 | 0.00 | 0.00 | 89 | 1017.5 |
| 20260905233212 | 73 | 72 | 3.0 | 6.0 | 0.00 | 0.00 | 0.00 | 89 | 1017.5 |
| 20260905232707 | 73 | 7 | 8.0 | 11.0 | 0.00 | 0.00 | 0.00 | 89 | 1017.1 |
| 20260905232203 | 73 | 307 | 5.0 | 7.0 | 0.00 | 0.00 | 0.00 | 89 | 1017.2 |
| 20260905231658 | 73 | 347 | 4.0 | 7.0 | 0.00 | 0.00 | 0.00 | 89 | 1017.3 |
| 20260905231154 | 74 | 76 | 7.0 | 10.0 | 0.00 | 0.00 | 0.00 | 89 | 1017.4 |
| 20260905230650 | 74 | 28 | 3.0 | 6.0 | 0.00 | 0.00 | 0.00 | 88 | 1017.1 |
| 20260905230147 | 74 | 52 | 4.0 | 6.0 | 0.00 | 0.00 | 0.00 | 87 | 1017.1 |
| 20260905225647 | 74 | 16 | 2.0 | 3.0 | 0.00 | 0.00 | 0.00 | 87 | 1017.2 |
| 20260905225142 | 75 | 304 | 7.0 | 8.0 | 0.00 | 0.00 | 0.00 | 86 | 1017.2 |
| 20260905224642 | 75 | 28 | 7.0 | 9.0 | 0.00 | 0.00 | 0.00 | 86 | 1017.1 |
| 20260905224142 | 75 | 36 | 2.0 | 2.0 | 0.00 | 0.00 | 0.00 | 86 | 1017.2 |
| 20260905223639 | 75 | 72 | 6.0 | 8.0 | 0.00 | 0.00 | 0.00 | 86 | 1017.1 |
| 20260905223135 | 76 | 34 | 3.0 | 6.0 | 0.00 | 0.00 | 0.00 | 85 | 1017.1 |
| 20260905222631 | 77 | 348 | 5.0 | 6.0 | 0.00 | 0.00 | 0.00 | 84 | 1017.1 |
| 20260905222125 | 77 | 358 | 6.0 | 6.0 | 0.00 | 0.00 | 0.00 | 84 | 1017.4 |
| 20260905221621 | 77 | 43 | 4.0 | 7.0 | 0.00 | 0.00 | 0.00 | 83 | 1017.1 |
| 20260905221117 | 77 | 76 | 1.0 | 3.0 | 0.00 | 0.00 | 0.00 | 84 | 1017.1 |
| 20260905220613 | 77 | 28 | 3.0 | 4.0 | 0.00 | 0.00 | 0.00 | 83 | 1017.1 |
| 20260905220109 | 79 | 358 | 3.0 | 4.0 | 0.00 | 0.00 | 0.00 | 80 | 1016.8 |
| 20260905215608 | 79 | 90 | 3.0 | 6.0 | 0.00 | 0.00 | 0.00 | 80 | 1016.9 |
| 20260905215104 | 79 | 67 | 2.0 | 3.0 | 0.00 | 0.00 | 0.00 | 80 | 1017.1 |
| 20260905214601 | 79 | 53 | 2.0 | 3.0 | 0.00 | 0.00 | 0.00 | 79 | 1016.9 |
| 20260905214100 | 79 | 9 | 2.0 | 3.0 | 0.00 | 0.00 | 0.00 | 79 | 1016.9 |
| 20260905213555 | 80 | 62 | 6.0 | 8.0 | 0.00 | 0.00 | 0.00 | 77 | 1016.7 |
| 20260905213051 | 79 | 357 | 2.0 | 3.0 | 0.00 | 0.00 | 0.00 | 79 | 1016.8 |
| 20260905212551 | 80 | 18 | 1.0 | 1.0 | 0.00 | 0.00 | 0.00 | 78 | 1016.4 |
| 20260905212050 | 80 | 14 | 5.0 | 7.0 | 0.00 | 0.00 | 0.00 | 77 | 1016.5 |
| 20260905211546 | 80 | 60 | 2.0 | 3.0 | 0.00 | 0.00 | 0.00 | 77 | 1016.5 |
| 20260905211041 | 81 | 80 | 1.0 | 2.0 | 0.00 | 0.00 | 0.00 | 76 | 1016.5 |
| 20260905210537 | 80 | 351 | 2.0 | 2.0 | 0.00 | 0.00 | 0.00 | 77 | 1016.5 |
| 20260905210032 | 80 | 8 | 2.0 | 3.0 | 0.00 | 0.00 | 0.00 | 76 | 1016.7 |
| 20260905205531 | 81 | 106 | 4.0 | 7.0 | 0.00 | 0.00 | 0.00 | 75 | 1016.7 |
| 20260905205030 | 81 | 319 | 6.0 | 8.0 | 0.00 | 0.00 | 0.00 | 73 | 1016.5 |